Home   Weather   Concepción   Past weeks

Flag for Chile Past Weather in Concepción, Chile — Yesterday and Last 2 Weeks

Now
70 °F

Sunny.


Feels Like: 70 °F
Forecast: 55 / 80 °F
Wind: 14 mph from Southwest

Location: Concepcion Airport

Current Time: Jan 22, 2017 at 9:34:29 pm

Latest Report: Jan 22, 2017 at 8:00 pm


Visibility: 10 mi

Pressure: 29.95 "Hg

Humidity: 57%

Dew Point: 54 °F

Location of ConcepciónLocation

Past Weather in Concepción — Graph

°F

Concepción Temperature Yesterday

Maximum temperature yesterday: 84 °F (at 2:00 pm)
Minimum temperature yesterday: 57 °F (at 7:00 am)
Average temperature yesterday: 71 °F

High & Low Weather Summary for the Past Weeks

 TemperatureHumidityPressure
High84 °F (Jan 21, 2:00 pm)100% (Jan 8, 11:00 pm)30.07 "Hg (Jan 8, 11:00 pm)
Low50 °F (Jan 10, 7:00 am)37% (Jan 21, 2:00 pm)29.86 "Hg (Jan 14, 7:00 pm)
Average65 °F70%29.98 "Hg
* Reported Jan 7 8:00 pm — Jan 22 8:00 pm, Concepción, Weather by CustomWeather, © 2017

Note: Actual official high and low records may vary slightly from our data, if they occured in-between our weather recording intervals... More about our weather records

Advertising

Concepción Weather History for the Previous 24 Hours

Scroll right to see more
 ConditionsComfort  
Time TempWeatherWind HumidityBarometerVisibility
8:00 pm
Sun, Jan 22
70 °FSunny.14 mph57%29.95 "Hg10 mi
7:00 pm73 °FSunny.20 mph50%29.95 "Hg10 mi
6:00 pm75 °FSunny.20 mph50%29.98 "Hg10 mi
5:00 pm77 °FPassing clouds.15 mph47%29.98 "HgN/A
4:00 pm75 °FSunny.16 mph54%29.98 "Hg10 mi
3:00 pm75 °FSunny.14 mph54%30.01 "Hg10 mi
2:00 pm73 °FSunny.13 mph53%30.01 "Hg10 mi
1:00 pm73 °FPassing clouds.10 mph50%30.04 "HgN/A
12:00 pm70 °FPassing clouds.8 mph57%30.04 "HgN/A
11:00 am66 °FPassing clouds.8 mph64%30.04 "HgN/A
10:00 am66 °FPassing clouds.7 mph60%30.04 "HgN/A
9:00 am61 °FPassing clouds.9 mph68%30.04 "HgN/A
8:00 am57 °FSunny.10 mph72%30.01 "Hg10 mi
7:00 am55 °FSunny.6 mph82%30.01 "Hg10 mi
6:00 am57 °FClear.8 mph77%30.01 "Hg10 mi
5:00 am59 °FClear.8 mph72%29.98 "Hg10 mi
4:00 am61 °FClear.12 mph68%29.98 "Hg10 mi
3:00 am61 °FCool.14 mph77%29.98 "HgN/A
2:00 am61 °FClear.6 mph83%29.98 "Hg10 mi
1:00 am63 °FClear.10 mph83%30.01 "Hg10 mi
12:00 am64 °FClear.14 mph78%30.01 "Hg10 mi
11:00 pm
Sat, Jan 21
66 °FClear.13 mph73%29.98 "Hg10 mi
10:00 pm68 °FClear.17 mph64%29.95 "Hg10 mi
9:00 pm72 °FSunny.22 mph57%29.95 "Hg10 mi
Weather by CustomWeather, © 2017

See weather overviewHow to use our weather pages